Regional Weather Roundup
Issued by NWS

Home | Current Version | Previous Version | Graphics & Text | Print | Product List | Glossary On
Versions: 1 2 3 4 5 6 7 8 9 10 11 12 13 14 15 16 17 18 19 20 21 22 23 24 25 26 27 28 29 30 31 32 33 34 35 36 37 38 39 40 41 42 43 44 45 46 47 48 49 50
000
ASUS44 KMEG 082000
RWRTN
TENNESSEE HOURLY STATE WEATHER ROUNDUP
NATIONAL WEATHER SERVICE MEMPHIS TN
200 PM CST MON FEB 08 2016

TNZ002-004-019-021-049-052-054-088>092-082100-
WEST TENNESSEE

CITY           SKY/WX    TMP DP  RH WIND       PRES   REMARKS
MEMPHIS INTL   PTSUNNY   46  20  35 W18G26    29.94F
NWS MEMPHIS      N/A     42 N/A N/A MISG        N/A
JACKSON        CLOUDY    40  20  44 W15G28    29.90R WCI  32
DYERSBURG      CLOUDY    37  19  48 W15G28    29.93R WCI  28
UNION CITY     CLOUDY    36  19  51 NW18      29.86S WCI  25
PARIS          CLOUDY    34  18  51 NW15      29.84R WCI  24
$$

TNZ008-025-027-028-033-062-065-066-082100-
NORTH MIDDLE TENNESSEE

CITY           SKY/WX    TMP DP  RH WIND       PRES   REMARKS
NASHVILLE      CLOUDY    42  23  46 W10       29.78S
CLARKSVILLE    LGT SNOW  34  29  82 NW16      29.81R WCI  24
COOKEVILLE     PTSUNNY   41  25  52 W8        29.73S
CROSSVILLE     CLOUDY    38  21  50 W18G25    29.71R WCI  28
$$

TNZ061-075-076-078-094-096-097-082100-
SOUTH MIDDLE TENNESSEE

CITY           SKY/WX    TMP DP  RH WIND       PRES   REMARKS
TULLAHOMA      PTSUNNY   39  21  48 W9        29.78S WCI  33
WINCHESTER     PTSUNNY   41  23  48 W14       29.79S
MCMINNVILLE    CLOUDY    39  25  56 W13       29.76S WCI  32
COLUMBIA       CLOUDY    37  30  75 W8        29.80R WCI  31
SHELBYVILLE    CLOUDY    43  25  49 W16       29.80S
$$

TNZ017-018-042-046-047-082100-
NORTHEAST TENNESSEE

CITY           SKY/WX    TMP DP  RH WIND       PRES   REMARKS
TRI CITIES     CLOUDY    43  29  57 W16G24    29.64R
$$

TNZ012-013-036-069-073-074-082100-
CENTRAL EAST TENNESSEE

CITY           SKY/WX    TMP DP  RH WIND       PRES   REMARKS
KNOXVILLE      CLOUDY    46  19  34 W22       29.68R
OAK RIDGE      CLOUDY    45  24  43 W9G18     29.71R
GATLINBURG     MOCLDY    45  21  39 W14       29.66F
$$

TNZ083-085-099-082100-
SOUTHEAST TENNESSEE

CITY           SKY/WX    TMP DP  RH WIND       PRES   REMARKS
CHATTANOOGA    PTSUNNY   45  21  38 W16G24    29.77R
$$

SKY/WX REPORTED AS FAIR MEANS FEW OR NO CLOUDS BELOW
12 THOUSAND FEET.





USA.gov is the U.S. government's official web portal to all federal, state and local government web resources and services.